Location: Coupvray
(48.8929°N, 2.7967°E)
Time: 21:14:17
(UTC+00:00)

Cosmos 1241 Rocket - Pass Details

Date: 29 October 2020
Orbit: 929 x 1018 km, 65.8° (Epoch: 30 November)

Event Time Altitude Azimuth Distance (km) Brightness Sun altitude
Rises 21:30:32 0° 313° (NW) 3,719 8.3 -46.9°
Reaches altitude 10° 21:33:52 10° 330° (NNW) 2,783 7.4 -47.3°
Enters shadow 21:35:20 15° 341° (NNW) 2,461 7.0 -47.5°
